TITAN 3C TRANSTAGE DEB, 28837

Orbit data source: Space-Track

TITAN 3C TRANSTAGE DEB, 28837 is space debris in HEO originally from a launch on Tue, 21 Dec 1965 UTC launched from the Air Force Eastern Test Range (AFETR). Debris objects in space refer to the collection of defunct objects orbiting the Earth. Examples of debris include non-operational satellites, rocket bodies, and fragments generated from explosions, collisions, or faulty payload assembly.

Loading next visibility...
Identifier
28837, 1965-108CP
Orbit
HEO
Country
Flag of USUS
Related business
Manufacturer
Unknown
Mission
Spacecraft
Bus & Motor
Unknown
Mass
Unknown
Launch date (UTC)
1965-12-21 (61 years ago)
Launch vehicle
Unknown
Launch site
Air Force Eastern Test Range (AFETR)
Object type
Payload
Rocket body
Debris
Shape & HBR
Unknown shape, 0.1 m
Radar Cross Section
Medium (>0.1 m² and <1 m²)

Expand to show TLE details & history
Last TLE update: 2 days ago

TLE from 2 days ago
0 TITAN 3C TRANSTAGE DEB
1 28837U 65108CP  26205.41095528  .00000018  00000-0  00000-0 0  9996
2 28837  25.7489 233.3772 6519454 182.9649 351.1827  2.63341366 26813
Epoch: 2026-07-24T09:51Z
TLE epoch observation values (Epoch: 2026-07-24T09:51:46.536Z)
Latitude
18.64551°
Longitude
-80.93556°
Altitude
2,615.439 km
Speed
8.406 km/s
True Right ascension
00h 36m 35s
True Declination
18° 33' 47"
Sunlit
Object was in daylight at epoch
Visualization orbit readout
Latitude
Unknown
Longitude
Unknown
Altitude
Unknown
Speed
Unknown
Apparent Right ascension
Unknown
Apparent Declination
Unknown
Sunlit
N/A
Visualization observer readout
Local Sidereal Time
16:15:04
Azimuth
Unknown
Elevation
Unknown
Doppler factor
Unknown
Orbital elements
Apogee altitude
30,219.174 km
Perigee altitude
1,332.688 km
Semi-major axis
22,154.068 km
Eccentricity
0.65195
Inclination
25.7489°
RAAN
233.3772°
Arg. of periapsis
182.9649°
True anomaly
310.25659°
Mean anomaly
351.1827°
Eccentric anomaly
335.97422°
Mean motion
0.65821 °/min
Orbital period
546.94 mins
BSTAR
0
Loading maneuver chart data...
Computing Atmospheric mass density...

Documentation

Showing up to 5 results
|